Burlington, VT

7:51 PM EDT on April 25, 2017 (GMT -0400)
Burlington International

Weather History for KBTV - May, 2014

Change the Weather History Date:

Sunday, May 11, 2014

  Actual Average Record
Temperature  
Mean Temperature 65 °F 55 °F  
Max Temperature 75 °F 66 °F 90 °F (1911)
Min Temperature 54 °F 44 °F 27 °F (1962)
Degree Days  
Heating Degree Days 0 11  
Month to date heating degree days 110 134  
Since 1 July heating degree days 7502 7208  
Cooling Degree Days 0 0  
Month to date cooling degree days 6 0  
Year to date cooling degree days 6 2  
Growing Degree Days 14 (Base 50)    
Moisture  
Dew Point 37 °F    
Average Humidity 39    
Maximum Humidity 55    
Minimum Humidity 23    
Precipitation  
Precipitation 0.00 in 0.10 in 1.51 in (1976)
Month to date precipitation 0.80 1.12  
Year to date precipitation 10.62 9.98  
Snow  
Snow 0.00 in 0.00 in 0.10 in (1907)
Month to date snowfall 0.0 0.0  
Since 1 July snowfall 86.5 81.2  
Snow Depth 0.00 in    
Sea Level Pressure  
Sea Level Pressure 29.94 in    
Wind  
Wind Speed 8 mph (West)    
Max Wind Speed 17 mph    
Max Gust Speed 24 mph    
Visibility 10 miles    
Events      
T = Trace of Precipitation, MM = Missing Value Source: NWS Daily Summary

Daily Weather History Graph

Daily Weather History Graph

Search for Another Location

Airport or City:

Trip Planner

Search our weather history database for the weather conditions in past years. The results will help you decide how hot, cold, wet, or windy it might be!

Date:

Astronomy

May. 11, 2014 Rise Set
Actual Time 5:29 AM EDT 8:08 PM EDT
Civil Twilight 4:56 AM EDT 8:42 PM EDT
Nautical Twilight 4:14 AM EDT 9:24 PM EDT
Astronomical Twilight 3:26 AM EDT 10:12 PM EDT
Moon 4:54 PM EDT (5/11) 3:42 AM EDT (5/11)
Length of Visible Light 15h 45m
Length of Day
14h 39m
Waxing Gibbous, 89% of the Moon is Illuminated
May 11
Waxing Gibbous
May 14
Full
May 21
Last Quarter
May 28
New
Jun 5
First Quarter

Hourly Weather History & Observations

Time (EDT) Temp. Dew Point Humidity Pressure Visibility Wind Dir Wind Speed Gust Speed Precip Events Conditions
12:54 AM 61.0 °F 39.0 °F 44% 29.84 in 10.0 mi West 8.1 mph - N/A   Clear
1:54 AM 59.0 °F 37.9 °F 46% 29.85 in 10.0 mi Calm Calm - N/A   Overcast
2:54 AM 59.0 °F 37.9 °F 46% 29.84 in 10.0 mi Calm Calm - N/A   Clear
3:54 AM 57.9 °F 37.9 °F 47% 29.84 in 10.0 mi WNW 6.9 mph - N/A   Clear
4:54 AM 57.9 °F 37.0 °F 46% 29.86 in 10.0 mi WNW 11.5 mph - N/A   Clear
5:54 AM 55.9 °F 37.9 °F 51% 29.89 in 10.0 mi West 11.5 mph - N/A   Partly Cloudy
6:54 AM 55.0 °F 39.0 °F 55% 29.93 in 10.0 mi West 9.2 mph - N/A   Scattered Clouds
7:54 AM 57.0 °F 39.0 °F 51% 29.93 in 10.0 mi WNW 9.2 mph - N/A   Partly Cloudy
8:54 AM 59.0 °F 39.9 °F 49% 29.97 in 10.0 mi West 12.7 mph - N/A   Partly Cloudy
9:54 AM 61.0 °F 39.9 °F 46% 29.98 in 10.0 mi West 12.7 mph 19.6 mph N/A   Scattered Clouds
10:54 AM 61.0 °F 39.0 °F 44% 29.99 in 10.0 mi WNW 8.1 mph 19.6 mph N/A   Partly Cloudy
11:54 AM 64.0 °F 37.0 °F 37% 29.98 in 10.0 mi WNW 11.5 mph 18.4 mph N/A   Scattered Clouds
12:54 PM 64.9 °F 36.0 °F 34% 29.97 in 10.0 mi Variable 4.6 mph - N/A   Scattered Clouds
1:54 PM 69.1 °F 34.0 °F 27% 29.96 in 10.0 mi South 10.4 mph 17.3 mph N/A   Partly Cloudy
2:54 PM 71.1 °F 33.1 °F 25% 29.94 in 10.0 mi Calm Calm - N/A   Partly Cloudy
3:54 PM 73.9 °F 33.1 °F 22% 29.94 in 10.0 mi West 11.5 mph - N/A   Partly Cloudy
4:54 PM 73.9 °F 33.1 °F 22% 29.94 in 10.0 mi WNW 10.4 mph 20.7 mph N/A   Partly Cloudy
5:54 PM 73.0 °F 34.0 °F 24% 29.95 in 10.0 mi NW 12.7 mph - N/A   Scattered Clouds
6:54 PM 69.1 °F 35.1 °F 29% 29.95 in 10.0 mi West 11.5 mph - N/A   Scattered Clouds
7:54 PM 68.0 °F 36.0 °F 31% 29.97 in 10.0 mi West 8.1 mph - N/A   Mostly Cloudy
8:54 PM 66.9 °F 36.0 °F 32% 29.99 in 10.0 mi WSW 9.2 mph - N/A   Mostly Cloudy
9:54 PM 64.9 °F 36.0 °F 34% 30.00 in 10.0 mi SW 10.4 mph - N/A   Clear
10:54 PM 64.0 °F 35.1 °F 34% 30.00 in 10.0 mi SSW 6.9 mph - N/A   Clear
11:54 PM 61.0 °F 36.0 °F 39% 30.01 in 10.0 mi SSW 5.8 mph - N/A   Clear